FW3046 Weather Reports


time (UTC)temp
C
wind
direction
speed
KPH
gust
KPH
rain 1hr
cm
rain 24hr
cm
rain mn
cm
humidity
%
barometer
mb
20260506103022 -17 0.0 0.0 0.00 3.38 1.04 1007.7
20260506101509 -17 0.0 0.0 0.00 3.38 1.04 1007.6
20260506100005 -17 0.0 0.0 0.05 3.38 1.04 1007.5
20260506094502 -17 0.0 0.0 0.05 3.38 1.04 1008.2
20260506093059 -17 0.0 0.0 0.05 3.38 1.04 1008.4
20260506091553 -17 144 0.0 0.0 0.08 3.38 1.04 1008.3
20260506090051 6 154 0.0 0.0 0.13 3.33 0.99 94 1008.3
20260506084550 6 154 0.0 3.2 0.20 3.33 0.99 94 1007.8
20260506083108 6 154 0.0 4.8 0.28 3.33 0.99 94 1007.9
20260506081551 6 154 0.0 4.8 0.33 3.30 0.97 94 1008.0
20260506073045 6 154 0.0 3.2 0.28 3.05 0.71 93 1007.9
20260506071548 6 154 0.0 3.2 0.23 2.97 0.64 93 1007.8
20260506061541 7 154 0.0 3.2 0.20 2.72 0.38 92 1007.8
20260506044524 8 154 0.0 1.6 0.15 2.44 0.10 94 1008.4
20260506043021 8 154 0.0 3.2 0.18 2.41 0.08 93 1008.5
20260506041522 8 154 0.0 4.8 0.18 2.39 0.05 94 1008.5
20260506040025 8 154 0.0 4.8 0.15 2.34 2.34 94 1008.6
20260506034518 8 154 0.0 1.6 0.15 2.29 2.29 93 1008.7
20260506033017 8 154 0.0 3.2 0.18 2.24 2.24 93 1008.8
20260506031524 8 154 1.6 3.2 0.25 2.21 2.21 93 1008.6
20260506030017 8 154 0.0 0.0 0.48 2.18 2.18 93 1009.1
20260506024532 8 154 0.0 3.2 0.56 2.13 2.13 93 1009.3
20260506023013 8 154 0.0 3.2 0.61 2.06 2.06 93 1008.9
20260506021512 8 154 0.0 4.8 0.66 1.96 1.96 93 1008.5
20260506020008 9 154 0.0 1.6 0.56 1.70 1.70 93 1008.5
20260506014513 9 154 0.0 1.6 0.51 1.57 1.57 93 1008.4
20260506013006 9 154 0.0 3.2 0.38 1.42 1.42 92 1008.4
20260506011504 9 154 0.0 4.8 0.25 1.30 1.30 92 1008.4
20260506010003 9 154 0.0 4.8 0.10 1.14 1.14 92 1007.9
20260506004607 10 154 0.0 3.2 0.05 1.07 1.07 92 1007.8
20260506003058 10 154 0.0 0.0 0.15 1.04 1.04 92 1007.9
20260506001556 10 154 0.0 1.6 0.28 1.04 1.04 91 1007.9
20260506000114 11 154 0.0 3.2 0.61 1.04 1.04 91 1007.7
20260505234551 11 154 0.0 1.6 0.84 1.02 1.02 91 1007.9
20260505233044 12 154 0.0 4.8 0.71 0.89 0.89 90 1007.9
20260505231540 13 153 1.6 6.4 0.61 0.76 0.76 90 1008.1
20260505230057 13 154 0.0 3.2 0.25 0.41 0.41 92 1008.0
20260505224540 13 154 0.0 3.2 0.03 0.18 0.18 91 1006.9
20260505223033 14 154 0.0 1.6 0.03 0.18 0.18 91 1007.1
20260505221533 14 154 0.0 3.2 0.00 0.15 0.15 91 1007.1
20260505220033 14 154 0.0 1.6 0.03 0.15 0.15 91 1007.2
20260505214532 14 153 0.0 1.6 0.05 0.15 0.15 90 1007.3
20260505213033 14 153 0.0 1.6 0.05 0.15 0.15 90 1007.2
20260505211535 14 154 0.0 4.8 0.15 0.15 0.15 89 1007.2
20260505210031 15 153 0.0 3.2 0.13 0.13 0.13 88 1007.2
20260505204537 15 154 0.0 1.6 0.10 0.10 0.10 85 1007.2
20260505203025 16 154 0.0 6.4 0.10 0.10 0.10 81 1007.1
20260505201527 17 153 0.0 0.0 0.00 0.00 0.00 76 1006.7
20260505200024 18 154 0.0 3.2 0.00 0.00 0.00 74 1006.8
20260505194531 18 154 0.0 1.6 0.00 0.00 0.00 73 1006.9
20260505193025 18 154 0.0 1.6 0.00 0.00 0.00 73 1006.9
20260505191522 18 153 0.0 3.2 0.00 0.00 0.00 72 1007.0
20260505190022 17 154 0.0 3.2 0.00 0.00 0.00 73 1007.3
20260505184528 17 154 0.0 3.2 0.00 0.00 0.00 72 1007.6
20260505183021 17 154 0.0 4.8 0.00 0.00 0.00 72 1007.8
20260505181519 18 154 1.6 6.4 0.00 0.00 0.00 71 1007.6
20260505180017 18 154 1.6 6.4 0.00 0.00 0.00 70 1007.3
20260505174517 18 154 0.0 6.4 0.00 0.00 0.00 69 1007.2
20260505173015 18 154 3.2 11.3 0.00 0.00 0.00 68 1007.1
20260505171516 19 154 1.6 9.7 0.00 0.00 0.00 67 1007.1
20260505170017 19 154 1.6 6.4 0.00 0.00 0.00 67 1007.1
20260505164514 19 154 1.6 8.0 0.00 0.00 0.00 66 1007.0
20260505163016 20 153 3.2 8.0 0.00 0.00 0.00 64 1007.0
20260505161512 21 153 3.2 11.3 0.00 0.00 0.00 63 1006.9
20260505153005 21 154 3.2 9.7 0.00 0.00 0.00 64 1006.1
20260505151502 21 154 1.6 8.0 0.00 0.00 0.00 64 1006.6
20260505124551 15 154 0.0 3.2 0.00 0.00 0.00 81 1006.3
20260505123050 15 154 0.0 3.2 0.00 0.00 0.00 81 1006.1
20260505121611 15 153 1.6 4.8 0.00 0.00 0.00 81 1006.0
20260505120037 -17 0.0 0.0 0.00 0.00 0.00 1005.0
20260505114535 -17 0.0 0.0 0.00 0.00 0.00 1005.0
20260505113030 -17 0.0 0.0 0.00 0.00 0.00 1005.4
20260505111533 -17 0.0 0.0 0.00 0.00 0.00 1005.4